2022-096K (53379 NORAD) Tracking and Keplerian Element Data

This shows tracking and keplerian element data for the satellite.

Feedback or suggestion? Click here.




ElementValue
Catalog53379
Name2022-096K
Epoch Orbit745
Epoch Day270.20440439
Epoch Year2022
RAAN171.3426
Inclination97.4314
Eccentricity0.0001689
Argument of Perigee296.2472
Mean Anonmoly188.8088
Mean Motion15.25498138
Decay Rate6.493E-05
L11 53379U 22096K 22270.20440439 .00006493 00000+0 25919-3 0 9995
L22 53379 97.4314 171.3426 0001689 296.2472 188.8088 15.25498138 7450

Live tracking and technical data element details for 2022-096K (NORAD 53379). 2022-096K can be tracked NOW for your location showing map with azimuth and elevation plus other details from your city location.

Track the satellite on the map from your city or location and see movement details for azimuth, elevation, latitude, longitude, range, height, and movement on the map or in text.







IsCatalogInMostPopularTable: catalog: 53379, numindb: 2
Update: records affected: 1



GetName: 53379 2022-096K

Hit Count: updated at: Fri, 30 Sep 2022 03:28:18 GMT